C9756 Weather Reports


time (UTC)temp
C
wind
direction
speed
KPH
gust
KPH
rain 1hr
cm
rain 24hr
cm
rain mn
cm
humidity
%
barometer
mb
20260508125556 9 226 0.0 0.0 0.00 0.43 0.03 94 1017.4
20260508125057 9 226 0.0 0.0 0.00 0.46 0.03 94 1017.5
20260508124556 9 226 0.0 0.0 0.00 0.46 0.03 94 1017.4
20260508124055 8 226 0.0 4.8 0.00 0.48 0.03 94 1017.3
20260508123555 8 226 0.0 4.8 0.00 0.48 0.03 94 1017.3
20260508123055 8 226 0.0 0.0 0.00 0.51 0.03 94 1017.3
20260508122556 8 226 0.0 0.0 0.00 0.51 0.03 94 1017.3
20260508122054 8 226 0.0 0.0 0.00 0.53 0.03 94 1017.3
20260508121553 8 226 0.0 0.0 0.00 0.58 0.03 94 1017.2
20260508121053 7 226 0.0 0.0 0.00 0.61 0.03 94 1017.0
20260508120554 7 226 0.0 0.0 0.00 0.64 0.03 94 1017.1
20260508120053 7 226 0.0 0.0 0.00 0.66 0.03 94 1017.0
20260508115600 7 226 0.0 0.0 0.00 0.69 0.03 94 1016.9
20260508115555 7 226 0.0 0.0 0.00 0.69 0.03 94 1017.0
20260508115212 7 226 0.0 0.0 0.00 0.69 0.03 94 1016.8
20260508114052 7 226 0.0 0.0 0.00 0.69 0.03 94 1016.7
20260508113554 6 226 0.0 0.0 0.00 0.69 0.03 94 1016.6
20260508113051 6 226 0.0 1.6 0.00 0.69 0.03 94 1016.5
20260508112556 6 226 0.0 3.2 0.00 0.71 0.03 94 1016.5
20260508112551 6 226 0.0 3.2 0.00 0.71 0.03 94 1016.5
20260508111552 6 226 0.0 0.0 0.00 0.71 0.03 94 1016.5
20260508111051 6 226 0.0 0.0 0.00 0.71 0.03 94 1016.4
20260508110553 6 226 0.0 0.0 0.00 0.71 0.03 94 1016.3
20260508110052 6 226 0.0 0.0 0.00 0.71 0.03 94 1016.2
20260508105550 6 226 0.0 0.0 0.00 0.71 0.03 94 1016.2
20260508105055 6 226 0.0 0.0 0.00 0.71 0.03 94 1015.8
20260508105050 6 226 0.0 0.0 0.00 0.71 0.03 94 1016.1
20260508104047 6 226 0.0 0.0 0.00 0.71 0.03 94 1015.7
20260508103553 6 226 0.0 0.0 0.00 0.74 0.03 94 1015.6
20260508103549 6 226 0.0 0.0 0.00 0.74 0.03 94 1015.6
20260508102552 6 226 0.0 0.0 0.00 0.74 0.03 94 1015.4
20260508102548 6 226 0.0 0.0 0.00 0.74 0.03 94 1015.5
20260508101553 6 226 0.0 0.0 0.00 0.74 0.03 94 1015.4
20260508101548 6 226 0.0 0.0 0.00 0.74 0.03 94 1015.4
20260508100547 6 226 0.0 0.0 0.00 0.74 0.03 94 1015.4
20260508100048 6 226 0.0 0.0 0.00 0.74 0.03 94 1015.3
20260508095546 6 226 0.0 0.0 0.00 0.74 0.03 94 1015.2
20260508095046 7 226 0.0 0.0 0.00 0.74 0.03 94 1015.2
20260508094550 7 226 0.0 0.0 0.00 0.74 0.03 94 1015.0
20260508094546 7 226 0.0 0.0 0.00 0.74 0.03 94 1015.0
20260508093546 7 228 0.0 0.0 0.00 0.74 0.03 94 1015.0
20260508093045 7 226 0.0 0.0 0.00 0.74 0.03 94 1015.0
20260508092545 7 226 0.0 0.0 0.00 0.74 0.03 94 1014.9
20260508092046 7 226 0.0 0.0 0.00 0.74 0.03 94 1014.9
20260508091554 7 226 0.0 0.0 0.00 0.76 0.03 94 1014.7
20260508091546 7 226 0.0 0.0 0.00 0.74 0.03 94 1014.7
20260508091046 7 227 0.0 0.0 0.00 0.76 0.03 94 1014.7
20260508090044 7 226 0.0 0.0 0.00 0.76 0.03 94 1014.6
20260508085542 7 226 0.0 0.0 0.00 0.76 0.03 94 1014.7
20260508085048 7 226 0.0 0.0 0.00 0.76 0.03 94 1014.9
20260508085043 7 227 0.0 0.0 0.00 0.76 0.03 94 1014.7
20260508084043 7 226 0.0 0.0 0.00 0.76 0.03 94 1014.7
20260508083545 7 226 0.0 0.0 0.00 0.76 0.03 94 1014.6
20260508083044 7 226 0.0 0.0 0.00 0.76 0.03 94 1014.7
20260508082543 7 227 0.0 0.0 0.00 0.76 0.03 94 1014.7
20260508082043 7 226 0.0 0.0 0.00 0.76 0.03 93 1014.6
20260508081544 7 226 0.0 0.0 0.00 0.76 0.03 93 1014.6
20260508081041 7 226 0.0 0.0 0.00 0.76 0.03 93 1014.5
20260508080542 7 226 0.0 0.0 0.00 0.76 0.03 93 1014.5
20260508080042 7 226 0.0 0.0 0.00 0.76 0.03 93 1014.4
20260508075541 8 226 0.0 0.0 0.00 0.76 0.03 93 1014.1
20260508075041 8 226 0.0 0.0 0.00 0.76 0.03 93 1014.3
20260508074546 8 226 0.0 0.0 0.00 0.76 0.03 93 1014.2
20260508074542 8 226 0.0 0.0 0.00 0.76 0.03 93 1014.2
20260508073542 8 226 0.0 0.0 0.00 0.76 0.03 93 1014.3
20260508073046 8 226 0.0 0.0 0.00 0.79 0.03 93 1014.2
20260508073041 8 226 0.0 0.0 0.00 0.76 0.03 93 1014.3
20260508072040 8 226 0.0 0.0 0.00 0.79 0.03 93 1014.2
20260508071540 8 226 0.0 0.0 0.00 0.79 0.03 93 1014.1
20260508071041 8 226 0.0 0.0 0.00 0.79 0.03 93 1014.1
20260508070540 8 226 0.0 0.0 0.00 0.79 0.03 93 1014.0
20260508070039 8 226 0.0 0.0 0.00 0.79 0.03 93 1014.0
20260508065539 8 226 0.0 0.0 0.00 0.79 0.03 93 1014.0
20260508065040 8 226 0.0 0.0 0.00 0.79 0.03 93 1014.0
20260508064540 8 226 0.0 0.0 0.00 0.79 0.03 93 1013.9
20260508064040 8 226 0.0 0.0 0.00 0.79 0.03 93 1013.9
20260508063548 8 226 0.0 0.0 0.03 0.79 0.03 93 1013.9
20260508063539 8 226 0.0 0.0 0.03 0.79 0.03 93 1014.0
20260508062547 8 226 0.0 0.0 0.03 0.79 0.03 93 1014.0
20260508062537 8 226 0.0 0.0 0.03 0.79 0.03 93 1013.9
20260508062037 8 226 0.0 0.0 0.03 0.79 0.03 93 1013.9
20260508061538 8 226 0.0 0.0 0.03 0.79 0.03 93 1013.9
20260508061038 8 226 0.0 0.0 0.03 0.79 0.03 93 1013.9
20260508060039 8 226 0.0 0.0 0.03 0.81 0.03 93 1013.9
20260508055538 8 226 0.0 0.0 0.03 0.81 0.03 93 1013.9
20260508055037 8 226 0.0 0.0 0.03 0.81 0.03 93 1013.8
20260508054537 8 226 0.0 0.0 0.03 0.84 0.03 93 1013.8
20260508054036 8 226 0.0 0.0 0.03 0.84 0.03 93 1013.7
20260508053535 8 226 0.0 0.0 0.00 0.81 0.03 93 1013.8
20260508053035 9 226 0.0 0.0 0.00 0.81 0.00 93 1013.7
20260508052536 9 226 0.0 0.0 0.00 0.81 0.00 93 1013.6
20260508052041 9 226 0.0 0.0 0.00 0.84 0.00 93 1013.7
20260508052036 9 226 0.0 0.0 0.00 0.84 0.00 93 1013.7
20260508051036 9 226 0.0 0.0 0.00 0.84 0.00 93 1013.7
20260508050535 9 226 0.0 0.0 0.00 0.86 0.00 93 1013.6
20260508050036 9 226 0.0 0.0 0.00 0.86 0.00 93 1013.5
20260508045541 9 226 0.0 0.0 0.00 0.86 0.00 93 1013.6
20260508045536 9 226 0.0 0.0 0.00 0.86 0.00 93 1013.6
20260508044539 10 226 0.0 0.0 0.00 0.86 0.00 93 1013.6
20260508044533 9 226 0.0 0.0 0.00 0.86 0.00 93 1013.6
20260508043533 10 226 0.0 0.0 0.00 0.86 0.00 93 1013.4
20260508043034 10 226 0.0 0.0 0.00 0.86 0.00 93 1013.4
20260508042533 10 226 0.0 1.6 0.00 0.86 0.00 93 1013.5
20260508042033 10 226 0.0 1.6 0.00 0.86 0.00 93 1013.5
20260508041539 10 226 0.0 0.0 0.00 0.86 0.00 93 1013.4
20260508041535 10 226 0.0 1.6 0.00 0.86 0.00 93 1013.4
20260508040536 10 231 0.0 0.0 0.00 0.86 0.00 93 1013.4
20260508040033 10 231 0.0 1.6 0.00 0.86 0.00 93 1013.4
20260508035532 10 231 0.0 1.6 0.00 0.86 0.86 93 1013.3
20260508035038 10 231 0.0 0.0 0.00 0.86 0.86 93 1013.3
20260508035032 10 231 0.0 0.0 0.00 0.86 0.86 93 1013.3
20260508034532 10 231 0.0 0.0 0.00 0.86 0.86 93 1013.3
20260508033531 10 231 0.0 0.0 0.00 0.86 0.86 93 1013.2
20260508033036 10 231 0.0 0.0 0.00 0.86 0.86 92 1013.3
20260508033032 10 231 0.0 0.0 0.00 0.86 0.86 93 1013.3
20260508032648 10 231 0.0 1.6 0.00 0.89 0.86 92 1013.3
20260508032147 10 231 0.0 1.6 0.00 0.89 0.86 92 1013.3
20260508031646 10 231 0.0 0.0 0.00 0.89 0.86 92 1013.3
20260508030535 11 231 0.0 0.0 0.00 0.91 0.86 92 1013.1
20260508030530 10 231 0.0 0.0 0.00 0.89 0.86 92 1013.2
20260508025530 11 231 0.0 0.0 0.00 0.91 0.86 92 1012.9
20260508025030 11 231 0.0 0.0 0.00 0.91 0.86 92 1013.0
20260508024536 11 231 0.0 1.6 0.00 0.91 0.86 92 1012.7
20260508024532 11 231 0.0 0.0 0.00 0.91 0.86 92 1012.9
20260508024030 11 231 0.0 1.6 0.00 0.91 0.86 92 1012.9
20260508022528 11 231 0.0 0.0 0.00 0.94 0.86 92 1012.8
20260508022033 12 231 0.0 1.6 0.00 0.99 0.86 92 1012.7
20260508022029 12 231 0.0 1.6 0.00 0.97 0.86 92 1012.8
20260508021027 12 231 0.0 0.0 0.00 0.99 0.86 92 1012.6
20260508020533 12 231 0.0 0.0 0.00 1.02 0.86 92 1012.4
20260508020529 12 231 0.0 0.0 0.00 1.02 0.86 92 1012.5
20260508020147 12 231 0.0 0.0 0.00 1.04 0.86 92 1012.3
20260508015646 12 231 0.0 0.0 0.00 1.04 0.86 92 1012.3
20260508014528 12 231 0.0 0.0 0.00 1.07 0.86 92 1012.2
20260508014032 12 231 0.0 1.6 0.00 1.17 0.86 92 1011.9
20260508014027 12 231 0.0 0.0 0.00 1.12 0.86 92 1012.1
20260508013526 12 231 0.0 0.0 0.00 1.14 0.86 92 1012.0
20260508013025 12 231 0.0 1.6 0.00 1.17 0.86 92 1012.0
20260508012025 12 92 0.0 1.6 0.00 1.17 0.86 92 1011.7
20260508011525 12 91 0.0 0.0 0.00 1.17 0.86 92 1011.5
20260508011026 12 92 0.0 0.0 0.00 1.17 0.86 92 1011.5
20260508010526 13 91 0.0 0.0 0.00 1.17 0.86 92 1011.3
20260508010025 13 91 0.0 0.0 0.00 1.19 0.86 92 1011.3
20260508005524 13 91 0.0 0.0 0.00 1.22 0.86 92 1011.0
20260508005023 13 92 0.0 0.0 0.00 1.24 0.86 92 1011.0
20260508004524 13 91 0.0 0.0 0.00 1.27 0.86 92 1010.9
20260508004023 13 91 0.0 0.0 0.00 1.27 0.86 92 1010.6
20260508003524 13 92 0.0 0.0 0.00 1.27 0.86 92 1010.6
20260508003024 13 91 0.0 0.0 0.00 1.27 0.86 92 1010.5
20260508002525 13 91 0.0 0.0 0.00 1.30 0.86 92 1010.6
20260508002024 13 92 0.0 0.0 0.00 1.30 0.86 92 1010.5
20260508001523 13 92 0.0 0.0 0.00 1.30 0.86 92 1010.5
20260508001024 13 92 0.0 0.0 0.00 1.30 0.86 92 1010.7
20260508000521 13 92 0.0 0.0 0.00 1.32 0.86 92 1010.6
20260508000022 13 92 0.0 0.0 0.00 1.32 0.86 92 1010.4
20260507235521 14 90 0.0 1.6 0.00 1.32 0.86 92 1010.3
20260507235023 14 91 0.0 1.6 0.00 1.32 0.86 92 1010.4
20260507234521 14 90 0.0 1.6 0.00 1.32 0.86 92 1010.4
20260507234022 14 90 0.0 1.6 0.00 1.32 0.86 92 1010.5
20260507233523 14 90 0.0 1.6 0.00 1.32 0.86 92 1010.4
20260507233019 14 90 0.0 0.0 0.00 1.35 0.86 92 1010.4
20260507232519 14 91 0.0 0.0 0.00 1.35 0.86 92 1010.4
20260507232020 14 91 0.0 0.0 0.00 1.35 0.86 92 1010.3
20260507231517 14 91 0.0 1.6 0.00 1.35 0.86 92 1010.2
20260507231018 14 91 0.0 1.6 0.00 1.35 0.86 92 1010.1
20260507230519 14 92 0.0 1.6 0.00 1.35 0.86 92 1010.2
20260507230018 15 92 0.0 1.6 0.00 1.35 0.86 91 1010.0
20260507225518 15 269 0.0 3.2 0.00 1.35 0.86 92 1009.9
20260507225019 15 269 0.0 3.2 0.00 1.35 0.86 92 1009.7
20260507224517 15 63 0.0 1.6 0.00 1.35 0.86 91 1009.5
20260507224015 15 63 0.0 1.6 0.00 1.35 0.86 91 1009.3
20260507223516 15 63 0.0 1.6 0.00 1.35 0.86 91 1009.2
20260507223023 15 64 0.0 3.2 0.20 1.35 0.86 91 1009.3
20260507223018 14 63 0.0 3.2 0.05 1.35 0.86 91 1009.3
20260507222017 15 60 0.0 1.6 0.23 1.35 0.86 91 1009.2
20260507222012 15 53 0.0 1.6 0.23 1.35 0.86 91 1009.2
20260507221631 15 274 0.0 4.8 0.23 1.35 0.86 91 1009.2
20260507220512 15 274 0.0 4.8 0.23 1.35 0.86 91 1009.0
20260507220016 15 85 0.0 3.2 0.23 1.35 0.86 91 1008.7
20260507215509 15 304 0.0 3.2 0.23 1.35 0.86 91 1008.6
20260507215010 15 92 0.0 3.2 0.23 1.35 0.86 91 1008.8
20260507214510 15 218 0.0 8.0 0.23 1.35 0.86 91 1008.8
20260507214015 15 13 1.6 4.8 0.23 1.35 0.86 91 1008.7
20260507214010 15 284 0.0 8.0 0.23 1.35 0.86 91 1008.6
20260507213009 15 65 1.6 4.8 0.18 1.30 0.81 91 1008.6
20260507212509 15 203 1.6 4.8 0.03 1.14 0.66 91 1008.8
20260507212009 15 68 1.6 3.2 0.00 1.12 0.64 91 1008.2
20260507211509 15 78 1.6 4.8 0.05 1.12 0.64 91 1008.2
20260507211008 15 68 0.0 4.8 0.08 1.12 0.64 90 1008.4
20260507210510 16 0 0.0 3.2 0.08 1.12 0.64 91 1008.1
20260507210008 16 226 0.0 3.2 0.10 1.12 0.64 91 1008.2
20260507205508 16 103 0.0 3.2 0.10 1.12 0.64 91 1008.1
20260507205010 16 68 0.0 3.2 0.10 1.12 0.64 91 1008.0
20260507204509 16 349 0.0 3.2 0.10 1.12 0.64 91 1008.2
20260507204013 15 83 0.0 4.8 0.10 1.12 0.64 91 1008.0
20260507204007 16 227 0.0 4.8 0.10 1.12 0.64 91 1008.3
20260507203627 15 129 1.6 4.8 0.10 1.12 0.64 90 1008.0
20260507203622 15 293 0.0 3.2 0.10 1.12 0.64 91 1008.3
20260507202003 15 283 1.6 9.7 0.10 1.12 0.64 89 1008.1
20260507201508 16 56 3.2 9.7 0.03 1.04 0.56 87 1008.2
20260507201504 16 240 1.6 9.7 0.05 1.07 0.61 88 1008.2
20260507201119 17 300 3.2 9.7 0.03 1.04 0.56 85 1008.1
20260507200008 19 79 3.2 14.5 0.00 1.02 0.53 79 1008.0
20260507200003 18 186 3.2 14.5 0.00 1.02 0.53 82 1007.9
20260507195623 22 5 1.6 9.7 0.00 1.02 0.53 75 1007.3
20260507195000 20 45 0.0 12.9 0.00 1.02 0.53 79 1007.3
20260507194500 21 338 1.6 9.7 0.00 1.02 0.53 78 1007.3
20260507193500 23 139 1.6 6.4 0.00 1.02 0.53 74 1007.0
20260507193003 23 225 1.6 6.4 0.00 1.02 0.53 73 1007.1
20260507192957 23 243 1.6 6.4 0.00 1.02 0.53 73 1006.9
20260507192003 24 240 3.2 14.5 0.00 1.02 0.53 71 1007.1
20260507191957 23 221 3.2 14.5 0.00 1.02 0.53 72 1007.0
20260507190958 24 224 1.6 8.0 0.00 1.02 0.53 72 1007.3
20260507190459 24 242 1.6 8.0 0.00 1.02 0.53 73 1007.2
20260507185958 23 225 1.6 6.4 0.00 1.02 0.53 76 1007.0
20260507185459 23 255 1.6 6.4 0.00 1.02 0.53 74 1007.0
20260507185001 22 240 0.0 4.8 0.00 1.02 0.53 80 1007.3
20260507184955 23 233 0.0 6.4 0.00 1.02 0.53 79 1007.0
20260507184454 23 239 0.0 4.8 0.00 1.02 0.53 80 1007.1
20260507183459 23 231 1.6 4.8 0.00 1.02 0.53 81 1007.5
20260507183453 22 228 1.6 4.8 0.00 1.02 0.53 80 1007.5
20260507182459 23 246 1.6 6.4 0.00 1.02 0.53 82 1007.4
20260507182453 23 215 1.6 4.8 0.00 1.02 0.53 82 1007.4
20260507181453 23 248 1.6 6.4 0.00 1.02 0.53 82 1007.4
20260507180951 23 225 0.0 4.8 0.00 1.02 0.53 86 1007.5
20260507180451 23 180 0.0 1.6 0.00 1.02 0.53 90 1007.4
20260507175952 22 103 0.0 3.2 0.00 1.02 0.53 91 1007.5
20260507175452 22 261 0.0 6.4 0.00 1.02 0.53 91 1007.5
20260507174952 22 215 0.0 6.4 0.00 1.02 0.53 91 1007.7
20260507174451 21 226 0.0 6.4 0.00 1.02 0.53 91 1007.7
20260507173952 20 235 1.6 6.4 0.00 1.02 0.53 91 1007.9
20260507173453 20 248 1.6 6.4 0.00 1.02 0.53 91 1007.9
20260507172949 21 231 1.6 6.4 0.00 1.02 0.53 91 1007.9
20260507172453 21 224 0.0 3.2 0.00 1.02 0.53 91 1007.9
20260507172448 21 241 0.0 1.6 0.00 1.02 0.53 91 1008.0
20260507171447 21 240 0.0 4.8 0.00 1.02 0.53 91 1008.0
20260507170946 21 72 0.0 4.8 0.00 1.04 0.53 91 1008.3
20260507170450 21 219 0.0 3.2 0.00 1.07 0.53 92 1008.3
20260507170445 20 174 1.6 4.8 0.00 1.07 0.53 92 1008.5
20260507165444 19 210 1.6 4.8 0.00 1.07 0.53 92 1008.6
20260507164943 19 253 1.6 4.8 0.00 1.24 0.53 92 1008.6
20260507164442 19 224 0.0 3.2 0.00 1.27 0.53 92 1008.5
20260507163942 19 226 1.6 3.2 0.00 1.27 0.53 92 1008.5
20260507163446 19 235 1.6 6.4 0.00 1.27 0.53 92 1008.4
20260507163441 19 228 1.6 6.4 0.00 1.27 0.53 92 1008.4
20260507162441 19 229 0.0 3.2 0.00 1.27 0.53 93 1008.4
20260507161942 19 228 1.6 6.4 0.00 1.27 0.53 93 1008.5
20260507161440 19 245 1.6 6.4 0.00 1.27 0.53 93 1008.7
20260507160940 19 215 0.0 6.4 0.00 1.27 0.53 93 1008.5
20260507160439 19 233 1.6 6.4 0.00 1.27 0.53 93 1008.2
20260507155940 19 197 0.0 4.8 0.00 1.27 0.53 93 1008.3
20260507155441 19 228 0.0 1.6 0.00 1.27 0.53 93 1008.3
20260507154939 18 228 0.0 1.6 0.00 1.27 0.53 93 1008.2
20260507154442 18 267 0.0 1.6 0.00 1.27 0.53 94 1008.2
20260507154438 18 228 0.0 1.6 0.00 1.27 0.53 93 1008.1
20260507153437 18 245 0.0 1.6 0.03 1.27 0.53 94 1008.2
20260507152942 18 245 0.0 3.2 0.03 1.27 0.53 94 1008.5
20260507152938 18 245 0.0 3.2 0.03 1.27 0.53 94 1008.3
20260507151937 17 245 0.0 1.6 0.03 1.27 0.53 94 1008.3
20260507151441 17 257 0.0 0.0 0.03 1.27 0.53 94 1008.7
20260507151436 17 245 0.0 1.6 0.03 1.27 0.53 94 1008.9
20260507151051 17 257 0.0 1.6 0.03 1.27 0.53 94 1008.7
20260507145933 17 257 0.0 1.6 0.03 1.27 0.53 94 1009.1
20260507145433 17 257 0.0 1.6 0.03 1.27 0.53 94 1009.3
20260507144933 17 248 0.0 1.6 0.03 1.27 0.53 94 1008.9
20260507144434 17 285 0.0 1.6 0.05 1.27 0.53 94 1009.2
20260507143932 17 227 0.0 1.6 0.05 1.27 0.53 94 1009.3
20260507143432 17 226 0.0 3.2 0.03 1.24 0.51 94 1009.6
20260507142932 17 227 0.0 3.2 0.05 1.24 0.51 94 1009.5
20260507142437 17 243 0.0 4.8 0.05 1.24 0.51 93 1009.1
20260507142431 17 239 0.0 4.8 0.05 1.24 0.51 94 1009.3
20260507141432 17 229 0.0 1.6 0.05 1.24 0.51 94 1008.9
20260507140936 17 229 0.0 1.6 0.05 1.24 0.51 94 1009.0
20260507140931 17 229 0.0 1.6 0.05 1.24 0.51 94 1008.8
20260507135932 17 229 0.0 0.0 0.05 1.24 0.51 94 1009.0
20260507135432 17 229 0.0 0.0 0.05 1.24 0.51 94 1008.7
20260507134930 17 229 0.0 0.0 0.08 1.24 0.51 94 1009.0
20260507134429 17 229 0.0 1.6 0.05 1.22 0.48 94 1009.0
20260507133930 17 229 0.0 1.6 0.08 1.22 0.48 94 1008.9
20260507133431 17 229 0.0 1.6 0.08 1.22 0.48 94 1008.9
20260507132931 17 229 0.0 0.0 0.08 1.19 0.46 94 1008.9
20260507132433 17 229 0.0 1.6 0.10 1.19 0.46 94 1008.6
20260507132428 17 229 0.0 0.0 0.08 1.19 0.46 94 1008.8
20260507131427 17 229 0.0 1.6 0.15 1.19 0.46 94 1008.5
20260507130930 17 225 0.0 0.0 0.18 1.19 0.46 94 1008.2
20260507130432 16 225 0.0 0.0 0.23 1.19 0.46 94 1008.3
20260507130427 17 225 0.0 0.0 0.20 1.19 0.46 94 1008.3
20260507130044 16 225 0.0 0.0 0.25 1.19 0.46 94 1008.6